Wetterdaten: Woche 19.12.16 - 25.12.16 (KW51)
Datum Zeit Temperatur Luftfeuchte Luftdruck Niederschlag Windrichtung Sonnenschein Solar Wind
19.12.2016 00:00 0,7 C 98 % 1029,0 hPa 0,0 l/m NO 0,00 h 0 W/m 5,6 km/h (1 Bft)
19.12.2016 01:00 0,6 C 98 % 1028,5 hPa 0,0 l/m NO 0,00 h 0 W/m 9,3 km/h (2 Bft)
19.12.2016 02:00 0,5 C 98 % 1028,1 hPa 0,0 l/m NO 0,00 h 0 W/m 9,1 km/h (2 Bft)
19.12.2016 03:00 0,3 C 98 % 1027,4 hPa 0,0 l/m NO 0,00 h 0 W/m 12,9 km/h (3 Bft)
19.12.2016 04:00 0,3 C 98 % 1026,7 hPa 0,0 l/m O-NO 0,00 h 0 W/m 15,3 km/h (3 Bft)
19.12.2016 05:00 0,3 C 97 % 1026,1 hPa 0,0 l/m O-NO 0,00 h 0 W/m 13,8 km/h (3 Bft)
19.12.2016 06:00 0,3 C 96 % 1025,6 hPa 0,0 l/m O-NO 0,00 h 0 W/m 14,0 km/h (3 Bft)
19.12.2016 07:00 0,3 C 96 % 1025,5 hPa 0,0 l/m O-NO 0,00 h 0 W/m 11,7 km/h (2 Bft)
19.12.2016 08:00 0,5 C 95 % 1025,3 hPa 0,0 l/m O 0,00 h 8 W/m 15,3 km/h (3 Bft)
19.12.2016 09:00 0,6 C 95 % 1025,1 hPa 0,0 l/m O 0,00 h 22 W/m 16,8 km/h (3 Bft)
19.12.2016 10:00 0,7 C 95 % 1025,0 hPa 0,0 l/m O 0,00 h 53 W/m 16,8 km/h (3 Bft)
19.12.2016 11:00 1,1 C 94 % 1024,9 hPa 0,0 l/m O 0,00 h 79 W/m 14,1 km/h (3 Bft)
19.12.2016 12:00 1,3 C 92 % 1024,6 hPa 0,0 l/m O-NO 0,00 h 86 W/m 15,2 km/h (3 Bft)
19.12.2016 13:00 1,5 C 91 % 1024,2 hPa 0,0 l/m O 0,00 h 105 W/m 14,4 km/h (3 Bft)
19.12.2016 14:00 1,4 C 91 % 1023,8 hPa 0,0 l/m O-NO 0,00 h 60 W/m 15,6 km/h (3 Bft)
19.12.2016 15:00 1,3 C 91 % 1024,0 hPa 0,0 l/m O-NO 0,00 h 40 W/m 15,6 km/h (3 Bft)
19.12.2016 16:00 1,1 C 91 % 1024,3 hPa 0,0 l/m O-NO 0,00 h 9 W/m 11,4 km/h (2 Bft)
19.12.2016 17:00 0,8 C 92 % 1024,4 hPa 0,0 l/m O-NO 0,00 h 0 W/m 7,6 km/h (2 Bft)
19.12.2016 18:00 0,5 C 93 % 1024,4 hPa 0,0 l/m O-NO 0,00 h 0 W/m 10,9 km/h (2 Bft)
19.12.2016 19:00 0,3 C 93 % 1024,5 hPa 0,0 l/m O-NO 0,00 h 0 W/m 11,4 km/h (2 Bft)
19.12.2016 20:00 0,0 C 94 % 1024,6 hPa 0,0 l/m O 0,00 h 0 W/m 12,0 km/h (2 Bft)
19.12.2016 21:00 -0,2 C 94 % 1024,5 hPa 0,0 l/m O-NO 0,00 h 0 W/m 9,5 km/h (2 Bft)
19.12.2016 22:00 -0,4 C 95 % 1024,4 hPa 0,0 l/m O-NO 0,00 h 0 W/m 8,8 km/h (2 Bft)
19.12.2016 23:00 -0,7 C 95 % 1024,5 hPa 0,0 l/m O-NO 0,00 h 0 W/m 8,9 km/h (2 Bft)
20.12.2016 00:00 -1,0 C 96 % 1024,4 hPa 0,0 l/m O 0,00 h 0 W/m 7,9 km/h (2 Bft)
20.12.2016 01:00 -1,2 C 96 % 1024,0 hPa 0,0 l/m O 0,00 h 0 W/m 10,6 km/h (2 Bft)
20.12.2016 02:00 -1,5 C 96 % 1023,7 hPa 0,0 l/m NO 0,00 h 0 W/m 14,1 km/h (3 Bft)
20.12.2016 03:00 -1,6 C 97 % 1023,5 hPa 0,0 l/m NO 0,00 h 0 W/m 11,9 km/h (2 Bft)
20.12.2016 04:00 -1,8 C 97 % 1023,1 hPa 0,0 l/m O-NO 0,00 h 0 W/m 13,0 km/h (3 Bft)
20.12.2016 05:00 -1,8 C 97 % 1022,4 hPa 0,0 l/m O-NO 0,00 h 0 W/m 13,3 km/h (3 Bft)
20.12.2016 06:00 -1,9 C 97 % 1021,8 hPa 0,0 l/m NO 0,00 h 0 W/m 14,6 km/h (3 Bft)
20.12.2016 07:00 -1,9 C 98 % 1021,7 hPa 0,0 l/m O-NO 0,00 h 0 W/m 13,2 km/h (3 Bft)
20.12.2016 08:00 -1,8 C 98 % 1021,9 hPa 0,0 l/m O-NO 0,00 h 14 W/m 13,0 km/h (3 Bft)
20.12.2016 09:00 -1,6 C 97 % 1021,8 hPa 0,0 l/m O-NO 0,00 h 44 W/m 14,0 km/h (3 Bft)
20.12.2016 10:00 -1,2 C 97 % 1021,9 hPa 0,0 l/m O-NO 0,00 h 85 W/m 13,2 km/h (3 Bft)
20.12.2016 11:00 -0,8 C 95 % 1021,5 hPa 0,0 l/m O-NO 0,00 h 86 W/m 12,2 km/h (2 Bft)
20.12.2016 12:00 -0,7 C 95 % 1021,1 hPa 0,0 l/m O-NO 0,00 h 92 W/m 14,1 km/h (3 Bft)
20.12.2016 13:00 -0,6 C 95 % 1020,9 hPa 0,0 l/m O-NO 0,00 h 81 W/m 11,3 km/h (2 Bft)
20.12.2016 14:00 -0,4 C 94 % 1020,9 hPa 0,0 l/m O-NO 0,00 h 67 W/m 8,8 km/h (2 Bft)
20.12.2016 15:00 -0,5 C 93 % 1021,4 hPa 0,0 l/m O-NO 0,00 h 28 W/m 8,0 km/h (2 Bft)
20.12.2016 16:00 -0,8 C 94 % 1021,8 hPa 0,0 l/m O-NO 0,00 h 6 W/m 9,8 km/h (2 Bft)
20.12.2016 17:00 -0,9 C 95 % 1022,3 hPa 0,0 l/m O-NO 0,00 h 0 W/m 6,0 km/h (2 Bft)
20.12.2016 18:00 -1,0 C 95 % 1022,8 hPa 0,0 l/m O-NO 0,00 h 0 W/m 4,1 km/h (1 Bft)
20.12.2016 19:00 -1,1 C 95 % 1023,6 hPa 0,0 l/m O-NO 0,00 h 0 W/m 1,3 km/h (1 Bft)
20.12.2016 20:00 -1,2 C 95 % 1024,0 hPa 0,0 l/m O-NO 0,00 h 0 W/m 2,3 km/h (1 Bft)
20.12.2016 21:00 -1,3 C 96 % 1024,4 hPa 0,0 l/m O-NO 0,00 h 0 W/m 1,2 km/h (1 Bft)
20.12.2016 22:00 -1,4 C 96 % 1024,8 hPa 0,0 l/m SW 0,00 h 0 W/m 7,6 km/h (2 Bft)
20.12.2016 23:00 -1,5 C 96 % 1025,1 hPa 0,0 l/m SW 0,00 h 0 W/m 8,2 km/h (2 Bft)
21.12.2016 00:00 -1,5 C 97 % 1025,3 hPa 0,0 l/m SW 0,00 h 0 W/m 5,5 km/h (1 Bft)
21.12.2016 01:00 -1,6 C 97 % 1025,7 hPa 0,0 l/m SW 0,00 h 0 W/m 2,5 km/h (1 Bft)
21.12.2016 02:00 -1,6 C 97 % 1026,3 hPa 0,0 l/m N 0,00 h 0 W/m 0,4 km/h (0 Bft)
21.12.2016 03:00 -1,7 C 97 % 1026,8 hPa 0,0 l/m SW 0,00 h 0 W/m 4,3 km/h (1 Bft)
21.12.2016 04:00 -1,8 C 97 % 1026,9 hPa 0,0 l/m N 0,00 h 0 W/m 0,4 km/h (0 Bft)
21.12.2016 05:00 -1,9 C 97 % 1027,1 hPa 0,0 l/m SW 0,00 h 0 W/m 1,1 km/h (0 Bft)
21.12.2016 06:00 -2,1 C 98 % 1027,6 hPa 0,0 l/m SW 0,00 h 0 W/m 0,4 km/h (0 Bft)
21.12.2016 07:00 -2,3 C 98 % 1028,1 hPa 0,0 l/m N 0,00 h 0 W/m 1,1 km/h (0 Bft)
21.12.2016 08:00 -2,4 C 98 % 1028,9 hPa 0,0 l/m SW 0,00 h 11 W/m 1,1 km/h (0 Bft)
21.12.2016 09:00 -2,4 C 98 % 1029,9 hPa 0,0 l/m SW 0,00 h 35 W/m 2,5 km/h (1 Bft)
21.12.2016 10:00 -2,0 C 98 % 1030,3 hPa 0,0 l/m SW 0,00 h 73 W/m 5,2 km/h (1 Bft)
21.12.2016 11:00 -1,7 C 98 % 1030,5 hPa 0,0 l/m SW 0,00 h 84 W/m 10,2 km/h (2 Bft)
21.12.2016 12:00 -1,1 C 98 % 1030,5 hPa 0,0 l/m SW 0,00 h 81 W/m 7,6 km/h (2 Bft)
21.12.2016 13:00 -0,8 C 98 % 1030,1 hPa 0,0 l/m SW 0,00 h 91 W/m 8,9 km/h (2 Bft)
21.12.2016 14:00 -0,7 C 98 % 1030,2 hPa 0,0 l/m S-SW 0,00 h 57 W/m 5,7 km/h (1 Bft)
21.12.2016 15:00 -0,7 C 98 % 1030,4 hPa 0,0 l/m N 0,00 h 27 W/m 0,3 km/h (0 Bft)
21.12.2016 16:00 -0,9 C 98 % 1030,6 hPa 0,0 l/m N 0,00 h 7 W/m 0,8 km/h (0 Bft)
21.12.2016 17:00 -1,3 C 97 % 1031,0 hPa 0,0 l/m N 0,00 h 0 W/m 0,1 km/h (0 Bft)
21.12.2016 18:00 -1,5 C 97 % 1031,1 hPa 0,0 l/m N 0,00 h 0 W/m 0,3 km/h (0 Bft)
21.12.2016 19:00 -1,7 C 98 % 1031,3 hPa 0,0 l/m N 0,00 h 0 W/m 0,5 km/h (0 Bft)
21.12.2016 20:00 -1,9 C 98 % 1031,3 hPa 0,0 l/m S-SW 0,00 h 0 W/m 3,2 km/h (1 Bft)
21.12.2016 21:00 -2,0 C 98 % 1031,3 hPa 0,0 l/m S-SW 0,00 h 0 W/m 2,3 km/h (1 Bft)
21.12.2016 22:00 -2,3 C 98 % 1031,3 hPa 0,0 l/m N 0,00 h 0 W/m 1,7 km/h (1 Bft)
21.12.2016 23:00 -2,4 C 98 % 1031,4 hPa 0,0 l/m N 0,00 h 0 W/m 0,4 km/h (0 Bft)
22.12.2016 00:00 -2,6 C 98 % 1031,2 hPa 0,0 l/m S-SW 0,00 h 0 W/m 3,1 km/h (1 Bft)
22.12.2016 01:00 -2,6 C 98 % 1031,1 hPa 0,0 l/m S-SW 0,00 h 0 W/m 1,2 km/h (1 Bft)
22.12.2016 02:00 -2,6 C 98 % 1031,4 hPa 0,0 l/m S-SW 0,00 h 0 W/m 3,6 km/h (1 Bft)
22.12.2016 03:00 -2,6 C 98 % 1031,5 hPa 0,0 l/m S-SW 0,00 h 0 W/m 5,5 km/h (1 Bft)
22.12.2016 04:00 -2,3 C 98 % 1031,6 hPa 0,0 l/m SW 0,00 h 0 W/m 8,3 km/h (2 Bft)
22.12.2016 05:00 -2,0 C 98 % 1031,9 hPa 0,0 l/m SW 0,00 h 0 W/m 9,5 km/h (2 Bft)
22.12.2016 06:00 -1,9 C 99 % 1032,0 hPa 0,0 l/m SW 0,00 h 0 W/m 12,9 km/h (3 Bft)
22.12.2016 07:00 -1,5 C 99 % 1032,0 hPa 0,0 l/m SW 0,00 h 0 W/m 11,2 km/h (2 Bft)
22.12.2016 08:00 -1,2 C 99 % 1032,4 hPa 0,0 l/m SW 0,00 h 9 W/m 10,4 km/h (2 Bft)
22.12.2016 09:00 -1,1 C 99 % 1032,5 hPa 0,0 l/m W-SW 0,00 h 42 W/m 7,5 km/h (2 Bft)
22.12.2016 10:00 -1,0 C 99 % 1032,7 hPa 0,0 l/m SW 0,00 h 77 W/m 10,6 km/h (2 Bft)
22.12.2016 11:00 -0,6 C 99 % 1032,6 hPa 0,0 l/m SW 0,00 h 109 W/m 10,5 km/h (2 Bft)
22.12.2016 12:00 -0,1 C 99 % 1032,4 hPa 0,0 l/m SW 0,00 h 122 W/m 9,1 km/h (2 Bft)
22.12.2016 13:00 0,1 C 99 % 1032,3 hPa 0,0 l/m S-SW 0,00 h 90 W/m 11,0 km/h (2 Bft)
22.12.2016 14:00 0,1 C 99 % 1032,4 hPa 0,0 l/m S-SW 0,00 h 77 W/m 11,3 km/h (2 Bft)
22.12.2016 15:00 0,1 C 99 % 1032,4 hPa 0,0 l/m S-SW 0,00 h 44 W/m 10,5 km/h (2 Bft)
22.12.2016 16:00 -0,2 C 99 % 1032,6 hPa 0,0 l/m S-SW 0,00 h 12 W/m 11,2 km/h (2 Bft)
22.12.2016 17:00 -0,5 C 99 % 1032,9 hPa 0,0 l/m SW 0,00 h 0 W/m 11,3 km/h (2 Bft)
22.12.2016 18:00 -0,7 C 99 % 1033,4 hPa 0,0 l/m S-SW 0,00 h 0 W/m 8,6 km/h (2 Bft)
22.12.2016 19:00 -0,9 C 99 % 1033,7 hPa 0,0 l/m SW 0,00 h 0 W/m 8,2 km/h (2 Bft)
22.12.2016 20:00 -1,0 C 99 % 1033,7 hPa 0,0 l/m SW 0,00 h 0 W/m 3,1 km/h (1 Bft)
22.12.2016 21:00 -1,1 C 99 % 1033,8 hPa 0,0 l/m SW 0,00 h 0 W/m 5,6 km/h (1 Bft)
22.12.2016 22:00 -1,0 C 99 % 1033,8 hPa 0,0 l/m S-SW 0,00 h 0 W/m 10,6 km/h (2 Bft)
22.12.2016 23:00 -0,8 C 99 % 1033,9 hPa 0,0 l/m S-SW 0,00 h 0 W/m 10,8 km/h (2 Bft)
23.12.2016 00:00 -0,5 C 99 % 1034,3 hPa 0,0 l/m S-SW 0,00 h 0 W/m 7,6 km/h (2 Bft)
23.12.2016 01:00 -0,3 C 99 % 1034,7 hPa 0,2 l/m S-SW 0,00 h 0 W/m 5,4 km/h (1 Bft)
23.12.2016 02:00 -0,1 C 99 % 1035,1 hPa 0,0 l/m S-SW 0,00 h 0 W/m 2,9 km/h (1 Bft)
23.12.2016 03:00 -0,1 C 99 % 1035,3 hPa 0,2 l/m S-SW 0,00 h 0 W/m 3,1 km/h (1 Bft)
23.12.2016 04:00 -0,0 C 99 % 1035,5 hPa 0,2 l/m N 0,00 h 0 W/m 0,4 km/h (0 Bft)
23.12.2016 05:00 0,2 C 99 % 1035,6 hPa 0,2 l/m S-SW 0,00 h 0 W/m 5,5 km/h (1 Bft)
23.12.2016 06:00 0,3 C 99 % 1036,2 hPa 0,2 l/m N 0,00 h 0 W/m 1,2 km/h (1 Bft)
23.12.2016 07:00 0,4 C 100 % 1036,8 hPa 0,0 l/m N 0,00 h 0 W/m 0,0 km/h (0 Bft)
23.12.2016 08:00 0,4 C 100 % 1037,0 hPa 0,2 l/m N 0,00 h 16 W/m 0,0 km/h (0 Bft)
23.12.2016 09:00 0,8 C 100 % 1037,3 hPa 0,0 l/m N 0,00 h 42 W/m 0,0 km/h (0 Bft)
23.12.2016 10:00 1,3 C 100 % 1037,4 hPa 0,2 l/m N 0,00 h 83 W/m 0,0 km/h (0 Bft)
23.12.2016 11:00 2,3 C 100 % 1036,8 hPa 0,0 l/m N 0,42 h 152 W/m 0,0 km/h (0 Bft)
23.12.2016 12:00 3,8 C 100 % 1035,7 hPa 0,0 l/m N 0,42 h 175 W/m 0,7 km/h (0 Bft)
23.12.2016 13:00 4,4 C 100 % 1034,9 hPa 0,0 l/m S-SW 0,08 h 131 W/m 1,3 km/h (1 Bft)
23.12.2016 14:00 4,9 C 100 % 1033,9 hPa 0,0 l/m S-SW 0,00 h 82 W/m 0,7 km/h (0 Bft)
23.12.2016 15:00 4,8 C 99 % 1033,8 hPa 0,0 l/m S-SW 0,00 h 20 W/m 1,5 km/h (1 Bft)
23.12.2016 16:00 4,7 C 99 % 1033,3 hPa 0,0 l/m N 0,00 h 9 W/m 0,0 km/h (0 Bft)
23.12.2016 17:00 4,3 C 99 % 1032,7 hPa 0,0 l/m N 0,00 h 0 W/m 0,0 km/h (0 Bft)
23.12.2016 18:00 4,1 C 99 % 1032,4 hPa 0,0 l/m N 0,00 h 0 W/m 0,8 km/h (0 Bft)
23.12.2016 19:00 4,1 C 99 % 1032,3 hPa 0,0 l/m SW 0,00 h 0 W/m 5,5 km/h (1 Bft)
23.12.2016 20:00 4,1 C 99 % 1032,0 hPa 0,0 l/m SW 0,00 h 0 W/m 6,6 km/h (2 Bft)
23.12.2016 21:00 3,9 C 99 % 1032,1 hPa 0,0 l/m SW 0,00 h 0 W/m 7,5 km/h (2 Bft)
23.12.2016 22:00 3,7 C 99 % 1031,9 hPa 0,0 l/m W-SW 0,00 h 0 W/m 7,6 km/h (2 Bft)
23.12.2016 23:00 3,4 C 98 % 1032,0 hPa 0,0 l/m W-SW 0,00 h 0 W/m 8,2 km/h (2 Bft)
24.12.2016 00:00 3,3 C 98 % 1031,5 hPa 0,0 l/m W-SW 0,00 h 0 W/m 10,3 km/h (2 Bft)
24.12.2016 01:00 3,3 C 98 % 1030,7 hPa 0,0 l/m S-SW 0,00 h 0 W/m 13,4 km/h (3 Bft)
24.12.2016 02:00 3,6 C 99 % 1031,1 hPa 0,0 l/m W-SW 0,00 h 0 W/m 16,4 km/h (3 Bft)
24.12.2016 03:00 3,9 C 99 % 1031,4 hPa 0,0 l/m W-SW 0,00 h 0 W/m 16,2 km/h (3 Bft)
24.12.2016 04:00 3,9 C 98 % 1031,1 hPa 0,0 l/m SW 0,00 h 0 W/m 21,0 km/h (4 Bft)
24.12.2016 05:00 3,8 C 97 % 1030,7 hPa 0,0 l/m W-SW 0,00 h 0 W/m 18,5 km/h (3 Bft)
24.12.2016 06:00 3,8 C 96 % 1030,9 hPa 0,0 l/m W-SW 0,00 h 0 W/m 15,7 km/h (3 Bft)
24.12.2016 07:00 3,8 C 95 % 1030,7 hPa 0,0 l/m W-SW 0,00 h 0 W/m 20,1 km/h (4 Bft)
24.12.2016 08:00 3,5 C 94 % 1030,6 hPa 0,0 l/m SW 0,00 h 16 W/m 13,0 km/h (3 Bft)
24.12.2016 09:00 3,3 C 95 % 1030,9 hPa 0,0 l/m SW 0,00 h 53 W/m 12,5 km/h (3 Bft)
24.12.2016 10:00 4,0 C 94 % 1030,8 hPa 0,0 l/m SW 0,25 h 117 W/m 18,8 km/h (3 Bft)
24.12.2016 11:00 4,6 C 91 % 1030,4 hPa 0,0 l/m W-SW 0,00 h 109 W/m 21,0 km/h (4 Bft)
24.12.2016 12:00 5,1 C 89 % 1030,1 hPa 0,0 l/m W-SW 0,00 h 112 W/m 24,5 km/h (4 Bft)
24.12.2016 13:00 5,6 C 88 % 1029,7 hPa 0,0 l/m SW 0,00 h 101 W/m 23,2 km/h (4 Bft)
24.12.2016 14:00 5,5 C 90 % 1029,5 hPa 0,0 l/m W-SW 0,00 h 76 W/m 23,4 km/h (4 Bft)
24.12.2016 15:00 5,7 C 92 % 1030,1 hPa 0,0 l/m W-SW 0,00 h 31 W/m 21,8 km/h (4 Bft)
24.12.2016 16:00 5,8 C 93 % 1030,2 hPa 0,0 l/m W-SW 0,00 h 10 W/m 21,0 km/h (4 Bft)
24.12.2016 17:00 6,0 C 95 % 1030,3 hPa 0,0 l/m W-SW 0,00 h 0 W/m 20,4 km/h (4 Bft)
24.12.2016 18:00 5,9 C 94 % 1030,6 hPa 0,0 l/m W-SW 0,00 h 0 W/m 20,0 km/h (4 Bft)
24.12.2016 19:00 5,5 C 93 % 1030,9 hPa 0,0 l/m W-SW 0,00 h 0 W/m 13,4 km/h (3 Bft)
24.12.2016 20:00 5,2 C 94 % 1031,2 hPa 0,0 l/m SW 0,00 h 0 W/m 12,1 km/h (2 Bft)
24.12.2016 21:00 4,8 C 95 % 1030,9 hPa 0,0 l/m SW 0,00 h 0 W/m 11,6 km/h (2 Bft)
24.12.2016 22:00 4,8 C 95 % 1031,1 hPa 0,0 l/m W-SW 0,00 h 0 W/m 12,0 km/h (2 Bft)
24.12.2016 23:00 4,9 C 95 % 1031,1 hPa 0,0 l/m W-SW 0,00 h 0 W/m 13,3 km/h (3 Bft)
25.12.2016 00:00 4,9 C 94 % 1031,5 hPa 0,0 l/m W-SW 0,00 h 0 W/m 9,4 km/h (2 Bft)
25.12.2016 01:00 4,8 C 94 % 1030,9 hPa 0,0 l/m SW 0,00 h 0 W/m 12,4 km/h (3 Bft)
25.12.2016 02:00 4,7 C 93 % 1030,5 hPa 0,0 l/m SW 0,00 h 0 W/m 12,4 km/h (3 Bft)
25.12.2016 03:00 4,8 C 93 % 1030,6 hPa 0,0 l/m W-SW 0,00 h 0 W/m 17,0 km/h (3 Bft)
25.12.2016 04:00 5,1 C 93 % 1030,2 hPa 0,0 l/m W-SW 0,00 h 0 W/m 17,4 km/h (3 Bft)
25.12.2016 05:00 5,1 C 92 % 1029,8 hPa 0,0 l/m W-SW 0,00 h 0 W/m 16,2 km/h (3 Bft)
25.12.2016 06:00 5,2 C 92 % 1030,3 hPa 0,0 l/m W-SW 0,00 h 0 W/m 15,0 km/h (3 Bft)
25.12.2016 07:00 5,1 C 93 % 1030,3 hPa 0,0 l/m SW 0,00 h 0 W/m 14,0 km/h (3 Bft)
25.12.2016 08:00 5,2 C 93 % 1030,6 hPa 0,0 l/m SW 0,00 h 7 W/m 19,2 km/h (3 Bft)
25.12.2016 09:00 5,3 C 91 % 1031,1 hPa 0,0 l/m W-SW 0,00 h 19 W/m 17,3 km/h (3 Bft)
25.12.2016 10:00 5,6 C 88 % 1031,0 hPa 0,0 l/m SW 0,00 h 52 W/m 23,2 km/h (4 Bft)
25.12.2016 11:00 5,9 C 86 % 1030,4 hPa 0,0 l/m SW 0,00 h 96 W/m 17,8 km/h (3 Bft)
25.12.2016 12:00 6,1 C 88 % 1030,2 hPa 0,0 l/m SW 0,08 h 101 W/m 15,2 km/h (3 Bft)
25.12.2016 13:00 6,3 C 88 % 1029,5 hPa 0,0 l/m SW 0,00 h 93 W/m 19,3 km/h (3 Bft)
25.12.2016 14:00 6,9 C 84 % 1029,1 hPa 0,0 l/m SW 0,00 h 87 W/m 14,8 km/h (3 Bft)
25.12.2016 15:00 6,8 C 84 % 1029,2 hPa 0,0 l/m S-SW 0,00 h 41 W/m 12,5 km/h (3 Bft)
25.12.2016 16:00 6,5 C 86 % 1029,3 hPa 0,0 l/m SW 0,00 h 12 W/m 13,0 km/h (3 Bft)
25.12.2016 17:00 6,2 C 87 % 1029,6 hPa 0,0 l/m SW 0,00 h 0 W/m 11,0 km/h (2 Bft)
25.12.2016 18:00 6,1 C 89 % 1029,7 hPa 0,0 l/m SW 0,00 h 0 W/m 11,6 km/h (2 Bft)
25.12.2016 19:00 6,0 C 88 % 1029,4 hPa 0,0 l/m S-SW 0,00 h 0 W/m 12,0 km/h (2 Bft)
25.12.2016 20:00 5,5 C 88 % 1029,2 hPa 0,0 l/m S-SW 0,00 h 0 W/m 10,6 km/h (2 Bft)
25.12.2016 21:00 4,9 C 89 % 1029,6 hPa 0,0 l/m SW 0,00 h 0 W/m 5,1 km/h (1 Bft)
25.12.2016 22:00 4,3 C 90 % 1029,7 hPa 0,0 l/m S 0,00 h 0 W/m 2,7 km/h (1 Bft)
25.12.2016 23:00 4,0 C 92 % 1029,9 hPa 0,0 l/m S-SO 0,00 h 0 W/m 5,1 km/h (1 Bft)
Min-Datum _ 22.12.16 25.12.16 20.12.16 - - - - 19.12.16
_ Min-Zeit 01:50 14:45 14:30 - - - - 00:20
Minimum _ -2,7 C 83 % 1020,6 hPa - - - - 0,0 km/h (0 Bft)
Max-Datum _ 25.12.16 20.12.16 23.12.16 23.12.16 - 23.12.16 23.12.16 24.12.16
_ Max-Zeit 14:40 13:35 10:15 01:35 - 11:35 11:55 12:55
Maximum _ 7,1 C 100 % 1037,6 hPa 0,2 l/m - 0,08 h 246 W/m 30,6 km/h
W-SW (5 Bft)
Durchschnitt _ 1,3 C 96 % 1029,3 hPa #1,4 l/m SW #1:15 h 61 W/m 9,6 km/h (2 Bft)